Regional Weather Roundup
Issued by NWS

Home | Current Version | Previous Version | Graphics & Text | Print | Product List | Glossary On
Versions: 1 2 3 4 5 6 7 8 9 10 11 12 13 14 15 16 17 18 19 20 21 22 23 24 25 26 27 28 29 30 31 32 33 34 35 36 37 38 39 40 41 42 43 44 45 46 47 48 49 50
000
ASUS44 KMEG 281010
RWRTN
TENNESSEE HOURLY STATE WEATHER ROUNDUP
NATIONAL WEATHER SERVICE MEMPHIS TN
400 AM CST SAT FEB 28 2015

TNZ002-004-019-021-049-052-054-088>092-281100-
WEST TENNESSEE

CITY           SKY/WX    TMP DP  RH WIND       PRES   REMARKS
MEMPHIS INTL   CLOUDY    30  13  49 NE10      30.52R WCI  21
NWS MEMPHIS      N/A     28 N/A N/A MISG        N/A
JACKSON        CLOUDY    27  12  53 E7        30.53S WCI  19
DYERSBURG      MOCLDY    25   7  46 NE9       30.58S WCI  15
UNION CITY     CLOUDY    21  14  73 NE7       30.57S WCI  13
PARIS          CLOUDY    21  10  63 NE6       30.56R WCI  14
LEXINGTON      CLOUDY    25   9  50 NE6       30.51S WCI  18
SAVANNAH       CLOUDY    27  10  50 NE3       30.52R
$$

TNZ008-025-027-028-033-062-065-066-281100-
NORTH MIDDLE TENNESSEE

CITY           SKY/WX    TMP DP  RH WIND       PRES   REMARKS
NASHVILLE      CLOUDY    25   9  50 NE8       30.56S WCI  16
CLARKSVILLE    CLOUDY    23  12  62 NE8       30.57S WCI  14
SMYRNA         CLOUDY    25  10  52 N7        30.57S WCI  17
COOKEVILLE     MOCLDY    23  12  63 NE3       30.51S
CROSSVILLE     CLOUDY    21  11  65 NE6       30.47S WCI  13
$$

TNZ061-075-076-078-094-096-097-281100-
SOUTH MIDDLE TENNESSEE

CITY           SKY/WX    TMP DP  RH WIND       PRES   REMARKS
FAYETTEVILLE   CLEAR     25  12  58 NE7         N/A  WCI  17
TULLAHOMA      CLOUDY    25  10  54 NE5       30.50R WCI  19
WINCHESTER     CLOUDY    25  16  68 N3        30.50R
MCMINNVILLE    CLOUDY    25  12  58 N8        30.51R WCI  16
COLUMBIA         N/A     25  10  54 NE5       30.52R WCI  19
SHELBYVILLE    CLOUDY    25  16  68 CALM      30.52F
$$

TNZ017-018-042-046-047-281100-
NORTHEAST TENNESSEE

CITY           SKY/WX    TMP DP  RH WIND       PRES   REMARKS
TRI CITIES     PTCLDY    17  12  80 CALM      30.55R
ELIZABETHTON   PTSUNNY   18  12  79 CALM      30.54R
$$

TNZ012-013-036-069-073-074-281100-
CENTRAL EAST TENNESSEE

CITY           SKY/WX    TMP DP  RH WIND       PRES   REMARKS
KNOXVILLE      MOCLDY    25  15  66 NE9       30.53S WCI  15
OAK RIDGE      MOCLDY    27  12  53 VRB7      30.55F WCI  19
GATLINBURG     CLOUDY    21  18  86 CALM      30.54S
MORRISTOWN     MOSUNNY   23  12  63 NE6       30.53R WCI  16
$$

TNZ083-085-099-281100-
SOUTHEAST TENNESSEE

CITY           SKY/WX    TMP DP  RH WIND       PRES   REMARKS
CHATTANOOGA    CLOUDY    30  13  49 N12       30.53S WCI  20
$$

SKY/WX REPORTED AS FAIR MEANS FEW OR NO CLOUDS BELOW
12 THOUSAND FEET.



USA.gov is the U.S. government's official web portal to all federal, state and local government web resources and services.